Houston, TX

8:11 AM CST on February 10, 2016 (GMT -0600)
Houston / Dunn Helistop

Weather History for KMCJ - November, 2013

Change the Weather History Date:

Sunday, November 17, 2013

  Actual Average (KHOU) Record (KHOU)
Temperature  
Mean Temperature 80 °F 62 °F  
Max Temperature 86 °F 72 °F 85 °F (2013)
Min Temperature 73 °F 52 °F 31 °F (1997)
Degree Days  
Heating Degree Days 0 5  
Month to date heating degree days 64  
Since 1 July heating degree days 94  
Cooling Degree Days 14    
Growing Degree Days 30 (Base 50)    
Moisture  
Dew Point 72 °F    
Average Humidity 83    
Maximum Humidity 100    
Minimum Humidity 58    
Precipitation  
Precipitation 0.00 in 0.14 in 5.19 in (2003)
Month to date precipitation 2.53  
Year to date precipitation 44.22  
Sea Level Pressure  
Sea Level Pressure 29.84 in    
Wind  
Wind Speed 8 mph (SSW)    
Max Wind Speed 20 mph    
Max Gust Speed 26 mph    
Visibility 7 miles    
Events      
T = Trace of Precipitation, MM = Missing Value Source: NWS Daily Summary

Daily Weather History Graph

Daily Weather History Graph

Search for Another Location

Airport or City:

Trip Planner

Search our weather history database for the weather conditions in past years. The results will help you decide how hot, cold, wet, or windy it might be!

Date:

Astronomy

Nov. 17, 2013 Rise Set
Actual Time 6:48 AM CST 5:24 PM CST
Civil Twilight 6:22 AM CST 5:50 PM CST
Nautical Twilight 5:53 AM CST 6:19 PM CST
Astronomical Twilight 5:25 AM CST 6:47 PM CST
Moon 5:42 PM CST (11/17) 6:43 AM CST (11/17)
Length of Visible Light 11h 27m
Length of Day
10h 36m
Full, 100% of the Moon is Illuminated
Nov 17
Full
Nov 25
Last Quarter
Dec 2
New
Dec 9
First Quarter
Dec 17
Full

Hourly Weather History & Observations

Time (CST) Temp. Heat Index Dew Point Humidity Pressure Visibility Wind Dir Wind Speed Gust Speed Precip Events Conditions
12:15 AM 75.2 °F - 73.4 °F 94% 29.80 in 7.0 mi SSE 15.0 mph 18.4 mph N/A   Overcast
12:35 AM 75.2 °F - 73.4 °F 94% 29.80 in 8.0 mi SSE 11.5 mph - N/A   Overcast
12:55 AM 75.2 °F - 73.4 °F 94% 29.79 in 8.0 mi SSE 12.7 mph 18.4 mph N/A   Overcast
1:15 AM 75.2 °F - 73.4 °F 94% 29.80 in 8.0 mi South 3.5 mph - N/A   Overcast
1:35 AM 75.2 °F - 73.4 °F 94% 29.81 in 7.0 mi South 5.8 mph - N/A   Overcast
1:55 AM 75.2 °F - 73.4 °F 94% 29.80 in 9.0 mi SSW 8.1 mph - N/A   Overcast
2:15 AM 75.2 °F - 73.4 °F 94% 29.80 in 7.0 mi South 5.8 mph - N/A   Overcast
2:35 AM 75.2 °F - 73.4 °F 94% 29.80 in 9.0 mi SSW 5.8 mph - N/A   Overcast
2:55 AM 75.2 °F - 73.4 °F 94% 29.80 in 9.0 mi Calm Calm - N/A   Overcast
3:15 AM 75.2 °F - 73.4 °F 94% 29.81 in 9.0 mi SSW 6.9 mph - N/A   Overcast
3:35 AM 75.2 °F - 73.4 °F 94% 29.80 in 8.0 mi South 3.5 mph - N/A   Overcast
3:55 AM 75.2 °F - 73.4 °F 94% 29.80 in 8.0 mi SSW 4.6 mph - N/A   Mostly Cloudy
4:15 AM 75.2 °F - 73.4 °F 94% 29.81 in 8.0 mi South 3.5 mph - N/A   Mostly Cloudy
4:35 AM 75.2 °F - 73.4 °F 94% 29.80 in 8.0 mi SW 3.5 mph - N/A   Overcast
4:55 AM 75.2 °F - 73.4 °F 94% 29.81 in 8.0 mi Calm Calm - N/A   Mostly Cloudy
5:15 AM 73.4 °F - 73.4 °F 100% 29.81 in 8.0 mi SSW 8.1 mph - N/A   Scattered Clouds
5:35 AM 73.4 °F - 73.4 °F 100% 29.80 in 7.0 mi SSW 4.6 mph - N/A   Partly Cloudy
5:55 AM 73.4 °F - 73.4 °F 100% 29.80 in 7.0 mi South 5.8 mph - N/A   Partly Cloudy
6:15 AM 73.4 °F - 73.4 °F 100% 29.80 in 6.0 mi SW 8.1 mph - N/A   Clear
6:35 AM 75.2 °F - 73.4 °F 94% 29.81 in 7.0 mi SSW 8.1 mph - N/A   Clear
6:55 AM 75.2 °F - 73.4 °F 94% 29.81 in 6.0 mi SSW 6.9 mph - N/A   Partly Cloudy
7:15 AM 75.2 °F - 73.4 °F 94% 29.82 in 4.0 mi SSW 6.9 mph - N/A   Scattered Clouds
7:35 AM 73.4 °F - 73.4 °F 100% 29.83 in 4.0 mi SSW 5.8 mph - N/A   Partly Cloudy
7:55 AM 73.4 °F - 73.4 °F 100% 29.84 in 3.0 mi SSW 6.9 mph - N/A   Partly Cloudy
8:15 AM 75.2 °F - 73.4 °F 94% 29.84 in 3.0 mi SW 9.2 mph - N/A   Partly Cloudy
8:35 AM 75.2 °F - 73.4 °F 94% 29.86 in 5.0 mi SW 8.1 mph - N/A   Scattered Clouds
8:55 AM 77.0 °F - 73.4 °F 89% 29.87 in 4.0 mi SSW 8.1 mph - N/A   Mostly Cloudy
9:15 AM 77.0 °F - 73.4 °F 89% 29.87 in 5.0 mi SSW 6.9 mph - N/A   Mostly Cloudy
9:35 AM 78.8 °F - 71.6 °F 78% 29.87 in 7.0 mi SSW 5.8 mph 18.4 mph N/A   Overcast
9:55 AM 80.6 °F 84.6 °F 71.6 °F 74% 29.87 in 9.0 mi SW 6.9 mph 19.6 mph N/A   Overcast
10:15 AM 80.6 °F 84.6 °F 71.6 °F 74% 29.87 in 10.0 mi SSW 8.1 mph 17.3 mph N/A   Overcast
10:35 AM 80.6 °F 84.6 °F 71.6 °F 74% 29.87 in 9.0 mi SSW 11.5 mph 23.0 mph N/A   Scattered Clouds
10:55 AM 82.4 °F 87.2 °F 71.6 °F 70% 29.87 in 10.0 mi SW 5.8 mph 19.6 mph N/A   Mostly Cloudy
11:15 AM 82.4 °F 87.2 °F 71.6 °F 70% 29.86 in 10.0 mi SSW 11.5 mph 20.7 mph N/A   Partly Cloudy
11:35 AM 82.4 °F 87.2 °F 71.6 °F 70% 29.85 in 10.0 mi SSW 5.8 mph 20.7 mph N/A   Partly Cloudy
11:55 AM 84.2 °F 89.6 °F 71.6 °F 66% 29.84 in 10.0 mi SW 9.2 mph 16.1 mph N/A   Mostly Cloudy
12:15 PM 84.2 °F 88.4 °F 69.8 °F 62% 29.83 in 9.0 mi SSW 13.8 mph 21.9 mph N/A   Mostly Cloudy
12:35 PM 82.4 °F 86.3 °F 69.8 °F 66% 29.82 in 10.0 mi SSW 12.7 mph 24.2 mph N/A   Partly Cloudy
12:55 PM 84.2 °F 88.4 °F 69.8 °F 62% 29.81 in 10.0 mi SSW 19.6 mph 26.5 mph N/A   Partly Cloudy
1:15 PM 86.0 °F 90.4 °F 69.8 °F 58% 29.81 in 10.0 mi SSW 16.1 mph 24.2 mph N/A   Partly Cloudy
1:35 PM 86.0 °F 90.4 °F 69.8 °F 58% 29.80 in 8.0 mi South 9.2 mph 24.2 mph N/A   Scattered Clouds
1:55 PM 86.0 °F 90.4 °F 69.8 °F 58% 29.80 in 10.0 mi SSW 12.7 mph 25.3 mph N/A   Scattered Clouds
2:15 PM 84.2 °F 88.4 °F 69.8 °F 62% 29.80 in 10.0 mi SSW 12.7 mph 20.7 mph N/A   Scattered Clouds
2:35 PM 84.2 °F 88.4 °F 69.8 °F 62% 29.80 in 9.0 mi SSW 10.4 mph 21.9 mph N/A   Scattered Clouds
2:55 PM 84.2 °F 88.4 °F 69.8 °F 62% 29.80 in 9.0 mi SSW 8.1 mph 18.4 mph N/A   Mostly Cloudy
3:15 PM 84.2 °F 88.4 °F 69.8 °F 62% 29.81 in 5.0 mi SSW 11.5 mph 19.6 mph N/A   Mostly Cloudy
3:35 PM 84.2 °F 88.4 °F 69.8 °F 62% 29.79 in 9.0 mi SSW 13.8 mph 23.0 mph N/A   Partly Cloudy
3:55 PM 84.2 °F 87.3 °F 68.0 °F 58% 29.80 in 10.0 mi SSW 11.5 mph 21.9 mph N/A   Clear
4:15 PM 84.2 °F 88.4 °F 69.8 °F 62% 29.81 in 10.0 mi SW 10.4 mph 21.9 mph N/A   Clear
4:35 PM 82.4 °F 86.3 °F 69.8 °F 66% 29.81 in 10.0 mi SSW 8.1 mph 16.1 mph N/A   Partly Cloudy
4:55 PM 82.4 °F 86.3 °F 69.8 °F 66% 29.82 in 8.0 mi SSW 8.1 mph - N/A   Scattered Clouds
5:15 PM 80.6 °F 83.9 °F 69.8 °F 70% 29.83 in 8.0 mi SW 6.9 mph - N/A   Scattered Clouds
5:35 PM 80.6 °F 83.9 °F 69.8 °F 70% 29.84 in 8.0 mi SW 5.8 mph - N/A   Mostly Cloudy
5:55 PM 80.6 °F 83.9 °F 69.8 °F 70% 29.85 in 8.0 mi SSW 4.6 mph - N/A   Mostly Cloudy
6:15 PM 80.6 °F 83.9 °F 69.8 °F 70% 29.86 in 10.0 mi SSW 5.8 mph - N/A   Mostly Cloudy
6:35 PM 78.8 °F - 71.6 °F 78% 29.86 in 10.0 mi SSW 8.1 mph - N/A   Clear
6:55 PM 78.8 °F - 71.6 °F 78% 29.87 in 9.0 mi South 4.6 mph - N/A   Clear
7:15 PM 77.0 °F - 71.6 °F 83% 29.87 in 8.0 mi SSW 4.6 mph - N/A   Clear
7:35 PM 77.0 °F - 71.6 °F 83% 29.87 in 8.0 mi SW 3.5 mph - N/A   Clear
7:55 PM 77.0 °F - 71.6 °F 83% 29.88 in 6.0 mi South 3.5 mph - N/A   Clear
8:15 PM 75.2 °F - 71.6 °F 89% 29.89 in 6.0 mi SSW 4.6 mph - N/A   Clear
8:35 PM 75.2 °F - 71.6 °F 89% 29.89 in 5.0 mi SSW 3.5 mph - N/A   Clear
8:55 PM 75.2 °F - 71.6 °F 89% 29.90 in 6.0 mi SSW 3.5 mph - N/A   Clear
9:15 PM 75.2 °F - 71.6 °F 89% 29.90 in 6.0 mi SSW 3.5 mph - N/A   Clear
9:35 PM 75.2 °F - 71.6 °F 89% 29.90 in 6.0 mi SSW 8.1 mph - N/A   Clear
9:55 PM 75.2 °F - 71.6 °F 89% 29.90 in 5.0 mi South 3.5 mph - N/A   Clear
10:15 PM 73.4 °F - 71.6 °F 94% 29.90 in 5.0 mi Calm Calm - N/A   Clear
10:35 PM 73.4 °F - 71.6 °F 94% 29.91 in 3.0 mi Calm Calm - N/A   Clear
10:55 PM 73.4 °F - 71.6 °F 94% 29.91 in 4.0 mi SSE 4.6 mph - N/A   Partly Cloudy
11:15 PM 73.4 °F - 71.6 °F 94% 29.91 in 2.5 mi South 4.6 mph - N/A   Mostly Cloudy
11:35 PM 73.4 °F - 73.4 °F 100% 29.91 in 2.0 mi Calm Calm - N/A   Mostly Cloudy
11:55 PM 73.4 °F - 73.4 °F 100% 29.91 in 0.8 mi SW 3.5 mph - N/A   Overcast